Location: Newark
(40.0667°N, 18.0500°E)
Time: 20:23:45
(UTC+00:00)

N. Korean satellite - Pass Details

Date: 29 January 2020
Orbit: 456 x 505 km, 97.2° (Epoch: 23 February)

Event Time Altitude Azimuth Distance (km) Brightness Sun altitude
Rises 04:01:25 0° 22° (NNE) 2,556 10.5 -22.7°
Reaches altitude 10° 04:03:39 10° 34° (NE) 1,679 9.6 -22.3°
Maximum altitude 04:06:52 30° 97° (E) 907 8.6 -21.7°
Drops below altitude 10° 04:10:07 10° 160° (SSE) 1,690 9.6 -21.1°
Sets 04:12:22 0° 171° (S) 2,574 10.4 -20.6°
